Date,TemperatureHighF,TemperatureAvgF,TemperatureLowF,DewpointHighF,DewpointAvgF,DewpointLowF,HumidityHigh,HumidityAvg,HumidityLow,PressureMaxIn,PressureMinIn,WindSpeedMaxMPH,WindSpeedAvgMPH,GustSpeedMaxMPH,PrecipitationSumIn
2013-3-1,35,25,12,19,14,5,76,63,50,30.26,30.14,0,-999,0,0.00
2013-3-2,31,20,8,12,8,1,76,60,42,30.29,30.14,0,-999,0,0.00
2013-3-3,36,19,6,16,6,-3,65,58,42,30.17,30.02,0,-999,0,0.00
2013-3-4,31,30,29,19,17,15,62,58,52,30.02,29.93,0,-999,0,0.00
2013-3-5,36,28,24,25,21,18,80,74,62,30.17,29.93,0,-999,0,0.00
2013-3-6,34,23,9,19,14,2,80,69,51,30.32,30.17,0,-999,0,0.00
2013-3-7,40,21,2,20,9,-5,71,61,45,30.38,30.29,0,-999,0,0.00
2013-3-8,44,30,12,28,19,6,77,65,51,30.38,30.17,0,-999,0,0.00
2013-3-9,40,37,32,36,31,23,92,80,70,30.17,29.69,0,-999,0,0.00
2013-3-10,38,36,33,38,35,33,100,97,92,29.84,29.66,0,-999,0,0.00
2013-3-11,41,33,29,38,32,29,100,98,88,29.75,29.59,0,-999,0,0.00
2013-3-12,39,28,21,32,24,19,100,85,67,30.08,29.75,0,-999,0,0.00
2013-3-13,33,23,14,20,15,11,91,73,47,30.32,30.08,0,-999,0,0.00
2013-3-14,46,31,19,36,25,15,94,81,58,30.29,29.99,0,-999,0,0.00
2013-3-15,40,34,26,39,32,25,100,94,80,29.99,29.75,0,-999,0,0.00
2013-3-16,36,29,20,34,27,18,100,93,72,30.14,29.78,0,-999,0,0.00
2013-3-17,33,23,12,24,16,8,90,74,58,30.23,29.93,0,-999,0,0.00
2013-3-18,42,25,15,37,22,13,100,87,75,29.93,29.54,0,-999,0,0.00
2013-3-19,27,17,9,23,13,3,91,82,64,30.08,29.72,0,-999,0,0.00
2013-3-20,29,14,4,8,1,-7,68,56,40,30.14,30.02,0,-999,0,0.00
2013-3-21,29,16,3,9,1,-9,59,51,41,30.08,29.96,0,-999,0,0.00
2013-3-22,38,22,6,17,7,-6,66,52,39,30.05,29.96,0,-999,0,0.00
2013-3-23,48,32,16,23,16,8,72,52,37,30.11,29.99,0,-999,0,0.00
2013-3-24,40,33,29,25,19,16,60,56,50,30.05,29.87,0,-999,0,0.00
2013-3-26,47,38,20,24,20,12,72,50,37,30.26,30.20,0,-999,0,0.00
2013-3-27,52,37,26,26,19,13,63,49,32,30.32,30.26,0,-999,0,0.00
2013-3-28,47,34,20,26,18,12,71,53,38,30.32,30.23,0,-999,0,0.00
2013-3-29,54,37,20,30,22,13,76,56,38,30.32,30.11,0,-999,0,0.00
2013-3-30,52,42,36,39,31,-100,87,68,54,30.11,29.78,0,-999,0,0.00
2013-3-31,37,35,32,34,32,29,91,89,87,29.78,29.72,0,-999,0,0.00